Starlink 33703

operational
NORAD ID: 63418 Int'l Des: 2025-065 Owner: SPXS Country: US Constellation: starlink
LEOCIRCULAR

About Starlink 33703

Description loading...

Live Position

Loading 3D Globe...

Upcoming Passes

Altitude History

Altitude vs Time

uPlot chart will show altitude changes over time

Two-Line Element Set

1 63418U 25065V 25346.76822114 .00050541 00000-0 18338-2 0 9991
2 63418 43.0020 238.1548 0001551 277.1465 82.9210 15.27576536 39548
Epoch: Dec 12, 2025 • Age: 19 hours

Current Status

Altitude 483.2 km
Velocity 7.63 km/s
Sub-Earth Point 22.92°N, 95.75°E
Launch Date Mar 31, 2025
Age 0.7 years
Type internet

Technical Details

Classification Payload
Mass 575.00 kg
Dry Mass 530.00 kg
Total Mass 575.00 kg
Length 0.30 m
Diameter 4.10 m
Span 29.00 m
Shape Box + pan
Manufacturer SPXS
Bus Type Starlink V2MO
Phase Status In Orbit
Owner/State SPXS/US

Large Constellations

Loading constellations...